Location: Caltech
(34.1382°N, 118.1253°W)
Time: 23:41:24
(UTC-07:00)

Uribyol 2 - Visible Passes

Search period start: 16 April 2014 00:00
Search period end: 26 April 2014 00:00
Orbit: 783 x 799 km, 98.6° (Epoch: 16 April)

Date Brightness Start Highest point End Pass type
(mag) Time Alt. Az. Time Alt. Az. Time Alt. Az.
16 Apr ? 02:10:26 10° NE 02:11:28 15° NE 02:11:28 15° NE visible
16 Apr ? 03:49:38 10° N 03:52:13 24° NNW 03:52:13 24° NNW visible
17 Apr ? 03:19:52 10° N 03:22:38 32° N 03:22:38 32° N visible
18 Apr ? 02:50:32 10° NNE 02:53:03 29° NNE 02:53:03 29° NNE visible
18 Apr ? 04:32:25 10° NW 04:33:48 12° NW 04:33:48 12° NW visible
19 Apr ? 02:21:37 10° NNE 02:23:28 20° NE 02:23:28 20° NE visible
19 Apr ? 04:01:28 10° NNW 04:04:13 22° NW 04:04:13 22° NW visible
20 Apr ? 01:53:28 10° NE 01:53:53 11° ENE 01:53:53 11° ENE visible
20 Apr ? 03:31:30 10° N 03:34:38 33° NNW 03:34:38 33° NNW visible
21 Apr ? 03:02:00 10° NNE 03:05:02 37° NNE 03:05:02 37° NNE visible
22 Apr ? 02:32:55 10° NNE 02:35:27 27° NE 02:35:27 27° NE visible
22 Apr ? 04:13:25 10° NNW 04:16:12 18° NW 04:16:12 18° NW visible
23 Apr ? 02:04:23 10° NE 02:05:52 16° ENE 02:05:52 16° ENE visible
23 Apr ? 03:43:12 10° N 03:46:36 31° NW 03:46:36 31° NW visible
24 Apr ? 03:13:33 10° N 03:17:01 43° N 03:17:01 43° N visible
25 Apr ? 02:44:17 10° NNE 02:47:25 36° NE 02:47:25 36° NE visible
25 Apr ? 04:25:34 10° NNW 04:28:10 15° WNW 04:28:10 15° WNW visible
